Regional Weather Roundup
Issued by NWS

Home | Current Version | Previous Version | Graphics & Text | Print | Product List | Glossary On
Versions: 1 2 3 4 5 6 7 8 9 10 11 12 13 14 15 16 17 18 19 20 21 22 23 24 25 26 27 28 29 30 31 32 33 34 35 36 37 38 39 40 41 42 43 44 45 46 47 48 49 50
000
ASUS45 KCYS 290210
RWRWY

WYOMING REGIONAL WEATHER ROUNDUP
NATIONAL WEATHER SERVICE CHEYENNE WY
800 PM MDT SAT MAR 28 2015

NOTE:  "FAIR" INDICATES FEW OR NO CLOUDS BELOW 12,000 FEET
WITH NO SIGNIFICANT WEATHER AND/OR OBSTRUCTIONS TO VISIBILITY.

WYZ001-290300-
YELLOWSTONE NATIONAL PARK

CITY           SKY/WX    TMP DP  RH WIND       PRES   REMARKS
LK YELLOWSTONE   N/A     36   9  32 NW10G21   30.19R WCI  28
W YELLOWSTONE  NOT AVBL

$$
WYZ002>013-054>058-071-098>099-290300-
NORTHERN WYOMING

CITY           SKY/WX    TMP DP  RH WIND       PRES   REMARKS
JACKSON        CLOUDY    45  25  45 SW14      30.14R
CODY           FAIR      54  18  24 W20G29    29.95S
GREYBULL       CLOUDY    58  11  15 N31G40    29.92R
WORLAND        FAIR      60  30  32 N21       29.89R
SHERIDAN       MOCLDY    55  10  16 NW36G56   29.89R
BUFFALO        MOCLDY    52  16  24 N30G48    29.90R
GILLETTE       CLOUDY    53  25  33 NW22G31   29.86R
HULETT         FAIR      54  34  47 N8G20     29.86R
NEWCASTLE      FAIR      59  34  38 N30G43    29.76R

$$
WYZ014>020-022>026-101>103-290300-
CENTRAL WYOMING

CITY           SKY/WX    TMP DP  RH WIND       PRES   REMARKS
BIG PINEY      FAIR      47  20  34 NW8G20    30.14R
PINEDALE       FAIR      43  23  45 N12       30.17R
DUBOIS         FAIR      45  19  36 W18G24    30.07R
LANDER         FAIR      57  13  17 N22G29    29.97R
RIVERTON       FAIR      58  14  17 W28G37    29.95R
CASPER         FAIR      59  16  18 NW17G25   29.90R
DOUGLAS        FAIR      65  14  14 NW30G45   29.84R

$$
WYZ021-027>030-104>119-290300-
SOUTHERN WYOMING

CITY           SKY/WX    TMP DP  RH WIND       PRES   REMARKS
EVANSTON       FAIR      50  25  37 E3        30.22R
KEMMERER       FAIR      46  23  39 SW23      30.18S
FORT BRIDGER   FAIR      53  16  22 W18G26    30.22S
ROCK SPRINGS   FAIR      53  17  24 W17       30.13R
DIXON          FAIR      56  23  27 W7        30.12R
RAWLINS        FAIR      56  11  16 W20G28    30.06R
SARATOGA       FAIR      54  14  20 W10       30.07R
LARAMIE        FAIR      56  20  24 W22G28    30.03R
CHEYENNE       FAIR      61  27  27 W30G38    29.93F
TORRINGTON     FAIR      71  18  13 W17G23    29.76R
PINE BLUFFS    FAIR      63  23  22 W12       29.90R

$$



USA.gov is the U.S. government's official web portal to all federal, state and local government web resources and services.